User: anonymous   Login
Location: Unspecified
(0.0000°N, 0.0000°E)
Time: 23:11:38
(UTC+00:00)
Language:

CASSIOPE - Orbit

View from above orbital plane
View from above orbital plane
View from above satellite
View from above satellite

Ground track
Ground track

The orbit data is extracted from the following two-line orbital elements,

1 39265U 13055A   21125.40165610  .00004508  00000-0  12336-3 0  9998
2 39265  80.9667 337.2789 0650868  80.1965 287.2037 14.31996598393834
Epoch (UTC): 05 May 2021 09:38:23
Eccentricity: 0.0650868
inclination: 80.9667°
perigee height: 319 km
apogee height: 1251 km
right ascension of ascending node: 337.2789°
argument of perigee: 80.1965°
revolutions per day: 14.31996598
mean anomaly at epoch: 287.2037°
orbit number at epoch: 39383

The dashed part of the orbit path shows where the satellite is in the earth's shadow,  

DLR